Location: Muenchen
(48.1800°N, 11.5800°E)
Time: 01:32:40
(UTC+02:00)

ISS - All Passes

Search period start: 26 October 2014 00:00
Search period end: 04 November 2014 23:00
Orbit: 412 x 416 km, 51.6° (Epoch: 25 October)

Date Brightness Start Highest point End Pass type
(mag) Time Alt. Az. Time Alt. Az. Time Alt. Az.
26 Oct - 11:58:33 10° SSW 12:01:27 28° SE 12:04:22 10° E daylight
26 Oct - 13:34:38 10° WSW 13:37:57 70° NNW 13:41:18 10° ENE daylight
26 Oct - 15:11:43 10° WNW 15:14:56 44° N 15:18:10 10° ENE daylight
26 Oct - 16:48:31 10° WNW 16:51:53 83° NNE 16:55:14 10° ESE daylight
26 Oct - 18:25:38 10° W 18:28:17 22° SW 18:30:55 10° SSE visible
27 Oct - 11:10:01 10° S 11:12:24 18° SE 11:14:47 10° E daylight
27 Oct - 12:45:23 10° WSW 12:48:43 87° SSE 12:52:04 10° ENE daylight
27 Oct - 14:22:23 10° WNW 14:25:37 44° N 14:28:51 10° ENE daylight
27 Oct - 15:59:17 10° WNW 16:02:37 63° NNE 16:05:56 10° E daylight
27 Oct - 17:36:08 10° W 17:39:12 33° SW 17:42:14 10° SSE visible
28 Oct - 10:22:11 10° SSE 10:23:22 12° SE 10:24:34 10° ESE daylight
28 Oct - 11:56:12 10° SW 11:59:29 60° SSE 12:02:47 10° ENE daylight
28 Oct - 13:33:00 10° W 13:36:16 49° N 13:39:32 10° ENE daylight
28 Oct - 15:10:01 10° WNW 15:13:18 51° N 15:16:34 10° E daylight
28 Oct - 16:46:46 10° WNW 16:50:01 51° SSW 16:53:16 10° SE daylight
29 Oct - 11:07:09 10° SW 11:10:17 39° SSE 11:13:25 10° ENE daylight
29 Oct - 12:43:36 10° W 12:46:54 58° NNW 12:50:13 10° ENE daylight
29 Oct - 14:20:41 10° WNW 14:23:55 45° N 14:27:09 10° E daylight
29 Oct - 15:57:26 10° WNW 16:00:46 77° SSW 16:04:06 10° ESE daylight
29 Oct - 17:34:55 10° W 17:37:01 16° SW 17:39:07 10° S visible
30 Oct - 10:18:18 10° SSW 10:21:05 25° SE 10:23:54 10° E daylight
30 Oct - 11:54:12 10° WSW 11:57:32 75° NNW 12:00:53 10° ENE daylight
30 Oct - 13:31:17 10° WNW 13:34:30 44° N 13:37:43 10° ENE daylight
30 Oct - 15:08:06 10° WNW 15:11:27 77° NNE 15:14:47 10° ESE daylight
30 Oct - 16:45:06 10° W 16:47:53 24° SW 16:50:39 10° SSE daylight
31 Oct - 09:29:46 10° S 09:31:56 16° SE 09:34:05 10° E daylight
31 Oct - 11:04:51 10° WSW 11:08:11 79° SSE 11:11:31 10° ENE daylight
31 Oct - 12:41:49 10° W 12:45:02 45° N 12:48:17 10° ENE daylight
31 Oct - 14:18:44 10° WNW 14:22:03 59° NNE 14:25:21 10° E daylight
31 Oct - 15:55:32 10° WNW 15:58:39 37° SW 16:01:46 10° SE daylight
01 Nov - 10:15:36 10° SW 10:18:50 53° SSE 10:22:06 10° ENE daylight
01 Nov - 11:52:18 10° W 11:55:34 51° N 11:58:50 10° ENE daylight
01 Nov - 13:29:20 10° WNW 13:32:35 49° N 13:35:51 10° E daylight
01 Nov - 15:06:03 10° WNW 15:09:21 58° SSW 15:12:38 10° SE daylight
01 Nov - 16:44:24 10° WSW 16:45:26 11° SW 16:46:29 10° SSW daylight
02 Nov - 09:26:28 10° SSW 09:29:31 34° SE 09:32:35 10° ENE daylight
02 Nov - 11:02:47 10° W 11:06:05 62° NNW 11:09:24 10° ENE daylight
02 Nov - 12:39:51 10° WNW 12:43:05 44° N 12:46:18 10° ENE daylight
02 Nov - 14:16:37 10° WNW 14:19:58 85° SSW 14:23:18 10° ESE daylight
02 Nov - 15:53:55 10° W 15:56:15 18° SW 15:58:35 10° S daylight
03 Nov - 08:37:34 10° SSW 08:40:13 22° SE 08:42:53 10° E daylight
03 Nov - 10:13:17 10° WSW 10:16:36 82° NNW 10:19:57 10° ENE daylight
03 Nov - 11:50:19 10° WNW 11:53:32 44° N 11:56:45 10° ENE daylight
03 Nov - 13:27:09 10° WNW 13:30:30 71° NNE 13:33:49 10° ESE daylight
03 Nov - 15:04:05 10° W 15:06:58 27° SW 15:09:51 10° SSE daylight
04 Nov - 07:49:05 10° S 07:50:57 14° SE 07:52:49 10° ESE daylight
04 Nov - 09:23:50 10° WSW 09:27:08 71° SSE 09:30:28 10° ENE daylight
04 Nov - 11:00:43 10° W 11:03:57 46° N 11:07:12 10° ENE daylight
04 Nov - 12:37:40 10° WNW 12:40:58 56° NNE 12:44:15 10° E daylight
04 Nov - 14:14:26 10° WNW 14:17:36 42° SSW 14:20:46 10° SE daylight
